Regional Weather Roundup
Issued by NWS

Home | Current Version | Previous Version | Graphics & Text | Print | Product List | Glossary On
Versions: 1 2 3 4 5 6 7 8 9 10 11 12 13 14 15 16 17 18 19 20 21 22 23 24 25 26 27 28 29 30 31 32 33 34 35 36 37 38 39 40 41 42 43 44 45 46 47 48 49 50
471
ASUS43 KBIS 250710
RWRND

NORTH DAKOTA REGIONAL WEATHER ROUNDUP
NATIONAL WEATHER SERVICE BISMARCK ND
200 AM CDT MON SEP 25 2017

NOTE: "FAIR" INDICATES FEW OR NO CLOUDS BELOW 12,000 FEET WITH NO
SIGNIFICANT WEATHER AND/OR OBSTRUCTIONS TO VISIBILITY.


NDZ001>003-009>011-017-250800-
NORTHWEST NORTH DAKOTA

CITY           SKY/WX    TMP DP  RH WIND       PRES   REMARKS
WILLISTON      CLOUDY    46  44  93 SW3       30.14S
MINOT          CLOUDY    48  44  86 W7        30.12R
MINOT AFB      CLOUDY    46  44  94 W6        30.11R
$$

NDZ018>021-031>035-040>046-250800-
SOUTHWEST NORTH DAKOTA

CITY           SKY/WX    TMP DP  RH WIND       PRES   REMARKS
BISMARCK       CLOUDY    49  46  90 NW6       30.12R
DICKINSON      CLOUDY    44  39  82 W3        30.11F
GARRISON         N/A     45  45 100 NW6       30.12R
HETTINGER ARPT CLOUDY    43  40  89 N3        30.13F
$$

NDZ004>008-012>016-024-026-027-054-250800-
NORTHEAST NORTH DAKOTA

CITY           SKY/WX    TMP DP  RH WIND       PRES   REMARKS
GRAND FORKS    CLOUDY    50  49  96 NW8       30.05R
GRND FRKS AFB  CLOUDY    50  50 100 N7        30.07R
DEVILS LAKE    CLOUDY    47  44  90 N8        30.10R
$$

NDZ022-023-025-028>030-036>039-047>053-250800-
SOUTHEAST NORTH DAKOTA

CITY           SKY/WX    TMP DP  RH WIND       PRES   REMARKS
FARGO          CLOUDY    51  50  96 NW10      30.04R
JAMESTOWN      CLOUDY    48  45  89 N7        30.08R
$$





USA.gov is the U.S. government's official web portal to all federal, state and local government web resources and services.